Flag for U.S.A. Weather past 2 weeks in Honolulu, Hawaii, U.S.A.

Now
85 °F

Scattered clouds.


Feels Like: 87 °F
Forecast: 74 / 90 °F
Wind: 13 mph from Northeast

Location: Honolulu International Airport

Current Time: Aug 20, 2014 at 10:26:33 AM

Latest Report: Aug 20, 2014 at 9:53 AM


Visibility: 10 mi

Pressure: 29.99 "Hg

Humidity: 51%

Dew point: 65 °F

Location of HonoluluLocation

Historic Weather in Honolulu — Graph

°F

Honolulu temperature yesterday

Maximum temperature yesterday: 87 °F (at 11:53 AM)
Minimum temperature yesterday: 75 °F (at 5:53 AM)
Average temperature yesterday: 81 °F

Past Weeks' High & Low Weather Summary

 TemperatureHumidityPressure
High89 °F (Aug 5, 1:53 PM)91% (Aug 12, 11:53 PM)30.06 "Hg (Aug 12, 11:53 PM)
Low73 °F (Aug 11, 4:53 AM)39% (Aug 6, 12:53 PM)29.88 "Hg (Aug 8, 4:53 AM)
Average81 °F63%29.98 "Hg
* Reported Aug 5 8:53 AM — Aug 20 8:53 AM, Honolulu, Weather by CustomWeather, © 2014

Note: Actual official high and low records may vary slightly from our data, if they occured in-between our weather recording intervals... More about our weather records

Advertising

Honolulu weather history for previous 24 hours

 ConditionsComfort  
Time TempWeatherWind HumidityBarometerVisibility
8:53 AM
Aug 20
83 °FScattered clouds.9 mph57%29.99 "Hg10 mi
7:53 AM81 °FScattered clouds.8 mph58%29.98 "Hg10 mi
6:53 AM77 °FPassing clouds.3 mph69%29.97 "Hg10 mi
5:53 AM77 °FPassing clouds.12 mph69%29.96 "Hg10 mi
4:53 AM76 °FPassing clouds.5 mph69%29.95 "Hg10 mi
3:53 AM76 °FPassing clouds.6 mph72%29.95 "Hg10 mi
2:53 AM77 °FPassing clouds.5 mph69%29.94 "Hg10 mi
1:53 AM77 °FPassing clouds.6 mph69%29.96 "Hg10 mi
12:53 AM78 °FPassing clouds.5 mph69%29.97 "Hg10 mi
11:53 PM
Aug 19
79 °FPassing clouds.8 mph67%29.98 "Hg10 mi
10:53 PM79 °FPartly cloudy.8 mph67%29.99 "Hg10 mi
9:53 PM79 °FPassing clouds.7 mph67%29.98 "Hg10 mi
8:53 PM80 °FPartly cloudy.13 mph64%29.97 "Hg10 mi
7:53 PM79 °FPartly cloudy.12 mph67%29.95 "Hg10 mi
6:53 PM80 °FBroken clouds.12 mph64%29.93 "Hg10 mi
5:53 PM83 °FScattered clouds.13 mph55%29.91 "Hg10 mi
4:53 PM86 °FScattered clouds.15 mph45%29.90 "Hg10 mi
3:53 PM86 °FScattered clouds.13 mph48%29.90 "Hg10 mi
2:53 PM87 °FScattered clouds.15 mph46%29.90 "Hg10 mi
1:53 PM87 °FScattered clouds.17 mph48%29.93 "Hg10 mi
12:53 PM87 °FScattered clouds.17 mph50%29.94 "Hg10 mi
11:53 AM87 °FBroken clouds.16 mph50%29.96 "Hg10 mi
10:53 AM86 °FBroken clouds.9 mph53%29.97 "Hg10 mi
Weather by CustomWeather, © 2014

See weather overviewHow to use our weather pages